Left ArrowRight Arrow

Hourly Observations for August 5, 2017

Temp ( °F °C ) Dew Point ( °F °C ) Humidity (%) Winds ( mph kmh ) Pressure ( in mb ) Visibility ( mi km ) Precip ( " mm )
12:06 am 00:06 Mostly Cloudy 77 25 74 23.3 90 90 S 5 7 30.00 1016 10 16 0.00 0.00
12:27 am 00:27 Cloudy with Nearby Thunderstorms 77 25 74 23.3 90 90 SW 7 11 30.00 1016 10 16 0.00 0.00
12:53 am 00:53 Cloudy with Light Rain 75 23.9 75 23.9 100 100 SW 9 15 30.00 1016 10 16 0.00 0.03
12:56 am 00:56 Cloudy with Nearby Thunderstorms 75 23.9 74 23.3 96 96 SW 10 17 30.00 1016 10 16 0.00 0.03
1:13 am 01:13 Partly Cloudy with Nearby Thunderstorms 73 22.8 71 21.7 94 94 W 3 6 30.00 1016 10 16 0.00 0.03
1:19 am 01:19 Partly Cloudy with Light Rain 73 22.8 71 21.7 94 94 S 6 9 30.00 1016 10 16 0.00 0.03
1:53 am 01:53 Mostly Clear 72 22.2 71 21.7 97 97 SSW 5 7 30.00 1016 10 16 0.00 0.03
2:53 am 02:53 Partly Cloudy 71 21.7 70 21.1 96 96 WSW 3 6 30.00 1016 10 16 0.00 0.00
3:53 am 03:53 Clear 71 21.7 70 21.1 96 96 Calm 29.99 1016 10 16 0.00 0.00
4:45 am 04:45 Mostly Clear 71 21.7 70 21.1 96 96 Calm 29.97 1015 10 16 0.00 0.00
4:53 am 04:53 Mostly Clear 71 21.7 70 21.1 96 96 Calm 29.98 1015 10 16 0.00 0.00
5:53 am 05:53 Clear 71 21.7 70 21.1 96 96 WNW 5 7 29.98 1015 10 16 0.00 0.00
6:53 am 06:53 Clear 71 21.7 69 20.6 94 94 Calm 30.00 1016 10 16 0.00 0.00
7:53 am 07:53 Sunny 71 21.7 68 20 90 90 W 5 7 30.03 1017 10 16 0.00 0.00
8:18 am 08:18 Mostly Cloudy 71 21.7 69 20.6 94 94 VRB 3 6 30.03 1017 10 16 0.00 0.00
8:44 am 08:44 Mostly Sunny 72 22.2 69 20.6 91 91 WNW 3 6 30.06 1018 10 16 0.00 0.00
8:53 am 08:53 Partly Cloudy 73 22.8 69 20.6 87 87 Calm 30.05 1018 10 16 0.00 0.00
9:53 am 09:53 Partly Cloudy 75 23.9 70 21.1 84 84 Calm 30.07 1018 10 16 0.00 0.00
10:53 am 10:53 Mostly Sunny 77 25 71 21.7 82 82 Calm 30.08 1019 10 16 0.00 0.00
11:53 am 11:53 Mostly Cloudy 80 26.7 69 20.6 69 69 WNW 5 7 30.07 1018 10 16 0.00 0.00
12:02 pm 12:02 Mostly Sunny 82 27.8 70 21.1 67 67 VRB 5 7 30.06 1018 10 16 0.00 0.00
12:53 pm 12:53 Partly Cloudy 82 27.8 70 21.1 67 67 W 8 13 30.05 1018 10 16 0.00 0.00
1:53 pm 13:53 Sunny 84 28.9 68 20 59 59 NW 8 13 30.04 1017 10 16 0.00 0.00
2:53 pm 14:53 Partly Cloudy 85 29.4 70 21.1 61 61 NW 12 19 30.04 1017 10 16 0.00 0.00
3:53 pm 15:53 Partly Cloudy 85 29.4 69 20.6 59 59 NW 6 9 30.02 1017 10 16 0.00 0.00
4:53 pm 16:53 Partly Cloudy 85 29.4 68 20 57 57 W 7 11 30.01 1016 10 16 0.00 0.00
5:53 pm 17:53 Mostly Sunny 87 30.6 68 20 53 53 NW 9 15 30.00 1016 10 16 0.00 0.00
6:53 pm 18:53 Sunny 86 30 68 20 55 55 WNW 8 13 30.00 1016 10 16 0.00 0.00
7:53 pm 19:53 Partly Cloudy 84 28.9 69 20.6 61 61 NW 5 7 30.01 1016 10 16 0.00 0.00
8:53 pm 20:53 Clear 80 26.7 70 21.1 71 71 Calm 30.01 1016 10 16 0.00 0.00
9:53 pm 21:53 Mostly Clear 74 23.3 72 22.2 94 94 Calm 30.03 1017 10 16 0.00 0.00
10:53 pm 22:53 Partly Cloudy 76 24.4 71 21.7 85 85 Calm 30.04 1017 10 16 0.00 0.00
11:53 pm 23:53 Clear 73 22.8 71 21.7 94 94 Calm 30.03 1017 10 16 0.00 0.00

Powered by Vaisala Xweather